Vertical_Velocity
6 -2 -0 5 0 6 4 5 6 -4 -7 9 2 4 2 5 6 3 2 2 3 0 1 4 -0 2 3 -0 -4 -4 -2 -1 -2 -3 0 -1 -0 -1 3 2 0 -0 -2
1 3 4 1 -1 10 9 6 -1 -3 4 -1 5 -1 2 1 -1 -2 -1 -2 -3 -6 -2 -3 3 5 5 1 -4 -5 0 0 -0 -1 -2 -5 3 1 3 1 4 4 -0
4 0 -3 -1 1 0 2 -1 3 8 13 12 3 9 -2 -6 -3 -6 0 2 1 -1 -1 -0 6 5 -8 -7 3 -11 -22 4 -11 2 -1 -6 -4 2 1 -1 -1 2 2
-2 -0 -0 1 2 -0 2 1 -4 -5 0 4 -3 5 6 -3 3 -3 2 7 5 2 3 -1 1 10 9 -11 -10 6 5 4 6 -5 4 -2 -3 -2 -5 0 -2 1 2
-1 -2 3 2 4 3 1 1 -0 -1 3 -4 5 -2 -1 6 0 4 0 -5 6 4 2 10 12 10 9 1 1 5 3 5 -2 -1 0 4 2 1 -0 -5 -3 -1 2
-10 -3 3 -0 4 -0 -2 0 1 3 2 -4 0 -1 3 0 0 -0 -1 3 14 12 16 16 14 7 2 2 -16 2 5 1 -4 -2 -2 -4 1 4 -1 -1 -0 0 -3
-13 -1 -5 3 3 -0 -1 -0 -2 4 -1 6 4 4 -2 -7 -4 4 10 3 -3 7 12 12 0 4 3 6 -2 0 3 0 10 -13 1 3 1 -1 0 0 1 -1 2
-0 2 4 1 -0 5 2 1 3 4 6 -0 7 2 0 -1 2 3 2 -2 8 12 -1 4 -3 22 2 -13 -9 -21 2 1 5 3 2 -2 1 0 1 1 -1 -2 -2
-4 -2 3 2 -3 0 2 -0 0 -4 1 -3 1 1 -0 -4 -3 1 2 -3 4 4 9 2 2 10 -12 16 -11 -3 -6 -6 2 2 4 -0 0 2 2 1 -0 2 1
1 1 0 -3 -6 -6 -0 3 -1 -1 -1 0 3 1 -0 -1 1 1 -0 -1 4 5 5 1 -4 -2 -2 5 -4 -0 6 2 -3 -1 3 -1 0 1 -1 1 2 1 1
-3 -1 -2 -2 0 -2 6 -3 -2 -0 2 1 1 -0 -1 -4 -0 2 1 1 0 -1 2 -1 -2 -1 2 0 1 -0 -7 -0 1 1 -8 -3 -2 0 1 2 1 0 0
-3 -2 -3 -4 1 0 1 1 2 -2 1 -0 -2 -0 -2 -2 -7 2 0 -0 2 -1 -5 4 12 -7 -3 2 2 -7 -12 -3 5 -2 1 0 0 3 -1 1 2 2 1
-0 1 -1 -1 1 2 1 2 0 -1 -2 -4 0 -2 -3 -1 -3 -1 4 1 3 4 2 -1 0 3 -6 -1 -0 -1 -1 -0 -1 1 2 0 -1 3 1 -0 2 1 3
-3 -2 2 2 0 3 3 1 3 5 1 -4 3 -0 -1 -1 -1 -1 2 -0 -2 -8 2 7 1 -2 -4 -1 -4 1 -0 -1 1 2 0 -0 -4 2 1 -2 4 -1 1
4 2 1 6 5 5 5 -2 -4 2 3 3 -2 2 -2 -3 -1 -0 4 -3 -1 -1 5 -1 2 0 -1 -2 4 -6 0 -4 1 -0 -1 -0 2 -2 -1 3 -2 3 0
-2 -2 -0 -3 3 6 2 -1 -4 -2 2 1 1 -2 -2 -0 -0 -0 1 0 -0 1 2 -2 -1 -4 -4 -3 1 2 1 -1 -0 -2 -1 -1 0 1 -5 2 2 1 2
-5 -6 -5 -6 -10 -9 -6 -3 -2 -3 -0 -1 -2 -2 1 1 -0 -2 -0 1 1 0 -1 -3 -1 -3 -1 -3 -1 -2 -1 0 1 0 -0 -2 -0 1 -9 2 2 2 2
-3 -4 -6 -8 -4 -3 -1 -0 2 1 -1 -2 -1 -1 1 0 1 1 -1 -1 1 1 0 -0 -1 -0 -0 0 -1 1 -1 2 1 0 -2 -0 -1 -3 -3 3 1 2 4
-3 -3 -3 -4 -2 3 3 0 -0 -1 -1 1 1 2 4 1 0 1 -1 -0 0 0 -1 -1 -1 -1 -1 -1 -1 -2 -3 -1 -0 -1 -2 -1 -3 -2 2 1 0 2 -0
-1 -0 0 -1 -2 1 -0 -1 -0 -2 -3 1 2 5 3 0 1 0 -1 -1 -1 -2 -1 -0 -0 -0 -2 -0 -1 0 -0 -0 -0 -1 -1 -3 -1 1 1 -0 1 3 -0
-2 -1 -1 -1 -3 -2 0 1 1 -0 3 1 0 1 -0 1 -1 -2 1 -1 1 1 -1 -1 -2 -1 -1 -1 -3 1 -1 -1 -1 -1 -2 -2 0 0 1 -0 -0 -1 4
1 -0 0 -0 -2 -1 -0 3 2 2 0 -1 0 0 -1 -2 0 1 2 1 1 -1 -2 -1 -2 -1 -3 -1 -1 -1 -2 -0 -1 -1 -0 -1 -1 1 1 -1 2 0 -2
-0 -0 -1 -0 0 1 3 3 1 -0 -2 -0 1 2 2 1 -0 -1 -1 0 -3 -3 -1 -1 -1 -1 -2 0 -2 -1 0 0 0 -0 -1 -1 -1 -1 0 1 3 4 4
0 1 0 -2 -1 1 2 4 3 0 -0 2 1 0 1 2 2 -2 0 1 0 -3 -2 -1 -3 -2 -1 -0 -2 -0 0 -0 -1 -2 -1 0 1 -0 1 -0 2 4 3
2 1 0 -2 0 -2 -0 2 2 1 0 -1 0 -1 1 3 1 2 1 1 -1 -3 -2 -2 -2 -1 -0 -3 -0 -1 -1 -1 -2 -0 -1 0 -1 0 -2 -3 -1 -2 -5
1 -0 -0 -1 -0 0 3 2 2 3 2 3 3 -0 -0 1 -1 -2 -2 -2 -2 -2 -1 -1 -2 -3 -1 -1 -1 -1 -0 -1 -2 1 1 -2 -1 -0 3 3 2 2 1
Height
3109 3112 3116 3121 3124 3127 3131 3136 3139 3142 3144 3145 3150 3154 3157 3159 3160 3162 3164 3166 3168 3169 3169 3170 3171 3171 3172 3173 3173 3174 3175 3174 3173 3172 3171 3170 3168 3167 3166 3163 3160 3158 3157
3104 3109 3113 3116 3119 3123 3126 3129 3134 3138 3141 3144 3146 3148 3151 3152 3154 3157 3159 3161 3162 3163 3164 3164 3165 3167 3169 3171 3170 3168 3171 3171 3169 3167 3164 3162 3164 3162 3160 3158 3156 3153 3152
3099 3104 3109 3113 3116 3119 3121 3125 3129 3133 3136 3139 3142 3142 3145 3148 3151 3153 3155 3156 3157 3157 3158 3158 3160 3160 3161 3163 3165 3166 3168 3165 3165 3163 3161 3157 3157 3155 3153 3152 3149 3148 3146
3093 3097 3102 3107 3112 3116 3120 3122 3124 3128 3130 3132 3136 3139 3142 3144 3147 3148 3149 3150 3150 3152 3153 3153 3154 3155 3155 3156 3157 3159 3159 3158 3155 3158 3157 3155 3152 3150 3148 3146 3144 3142 3140
3088 3092 3096 3101 3106 3111 3114 3118 3121 3124 3125 3128 3131 3134 3137 3139 3140 3142 3143 3145 3145 3146 3146 3148 3148 3149 3150 3150 3152 3152 3154 3152 3153 3154 3153 3151 3147 3146 3143 3140 3139 3137 3134
3083 3088 3092 3095 3099 3102 3107 3111 3115 3118 3121 3125 3127 3128 3131 3134 3135 3136 3138 3139 3140 3140 3141 3141 3141 3141 3142 3145 3144 3147 3148 3146 3146 3147 3145 3144 3142 3140 3138 3136 3133 3131 3128
3076 3081 3085 3090 3094 3096 3100 3104 3108 3112 3115 3118 3120 3122 3124 3127 3128 3130 3131 3134 3134 3135 3135 3134 3134 3136 3138 3138 3139 3142 3143 3141 3141 3141 3140 3138 3136 3133 3131 3128 3126 3123 3122
3071 3075 3080 3084 3087 3090 3093 3097 3101 3104 3107 3110 3113 3115 3117 3120 3121 3122 3124 3126 3127 3128 3128 3129 3128 3128 3131 3133 3133 3133 3135 3135 3135 3135 3132 3130 3128 3125 3124 3122 3120 3116 3113
3067 3071 3074 3077 3081 3084 3087 3091 3094 3097 3100 3104 3106 3107 3110 3112 3114 3116 3117 3119 3120 3120 3121 3122 3125 3123 3122 3125 3125 3125 3127 3129 3128 3126 3124 3122 3120 3117 3116 3115 3112 3110 3106
3065 3068 3070 3073 3077 3080 3083 3085 3087 3090 3093 3095 3098 3100 3102 3104 3106 3108 3109 3111 3112 3113 3115 3116 3116 3116 3117 3116 3117 3119 3119 3118 3117 3116 3114 3113 3111 3109 3107 3106 3104 3102 3101
3061 3064 3066 3070 3073 3075 3078 3080 3082 3084 3086 3088 3090 3092 3095 3097 3099 3100 3103 3104 3106 3107 3107 3108 3109 3109 3110 3109 3109 3110 3111 3111 3109 3107 3106 3105 3102 3100 3098 3096 3095 3094 3093
3057 3059 3061 3065 3067 3070 3072 3075 3077 3079 3080 3081 3084 3085 3088 3091 3094 3096 3097 3099 3101 3101 3101 3102 3102 3101 3102 3103 3104 3104 3103 3101 3099 3098 3097 3094 3093 3090 3089 3086 3086 3085 3084
3054 3055 3057 3059 3061 3064 3067 3070 3071 3073 3074 3076 3077 3079 3081 3085 3088 3091 3092 3093 3095 3095 3094 3093 3093 3093 3094 3094 3093 3093 3092 3091 3090 3088 3086 3084 3082 3081 3079 3078 3077 3076 3075
3052 3054 3056 3057 3059 3061 3062 3064 3065 3066 3068 3070 3071 3073 3076 3079 3082 3085 3087 3086 3087 3086 3083 3083 3084 3086 3086 3086 3084 3084 3083 3082 3080 3079 3077 3075 3073 3071 3070 3069 3069 3068 3067
3050 3052 3054 3056 3056 3058 3059 3060 3061 3062 3063 3064 3066 3068 3070 3073 3075 3078 3079 3080 3080 3078 3078 3079 3079 3079 3078 3077 3077 3077 3074 3073 3071 3070 3068 3066 3065 3062 3061 3061 3060 3060 3060
3044 3046 3049 3051 3054 3054 3055 3055 3057 3058 3058 3059 3060 3061 3062 3065 3068 3070 3072 3072 3072 3073 3074 3073 3072 3072 3071 3071 3070 3067 3066 3064 3063 3062 3060 3058 3055 3054 3054 3053 3052 3053 3052
3038 3041 3043 3045 3046 3048 3049 3049 3049 3050 3052 3053 3054 3056 3057 3059 3061 3063 3064 3065 3066 3067 3067 3066 3066 3066 3064 3064 3062 3060 3058 3056 3054 3053 3051 3049 3048 3047 3046 3046 3045 3047 3047
3033 3034 3036 3038 3039 3040 3041 3042 3041 3041 3043 3045 3047 3049 3051 3053 3055 3057 3058 3059 3060 3060 3060 3060 3060 3059 3058 3056 3054 3052 3050 3048 3045 3044 3043 3042 3041 3040 3039 3039 3040 3040 3040
3027 3028 3030 3031 3031 3032 3032 3032 3033 3035 3036 3038 3040 3043 3044 3047 3050 3051 3052 3054 3054 3055 3055 3054 3053 3052 3050 3047 3045 3044 3042 3041 3039 3038 3036 3035 3034 3034 3034 3034 3034 3034 3036
3021 3021 3022 3022 3023 3023 3023 3024 3026 3027 3030 3032 3035 3036 3038 3041 3044 3045 3047 3048 3049 3049 3049 3047 3045 3043 3041 3039 3038 3037 3035 3033 3032 3030 3029 3028 3028 3028 3028 3028 3029 3031 3032
3014 3014 3014 3015 3015 3015 3016 3018 3019 3022 3025 3026 3028 3031 3034 3036 3038 3040 3042 3042 3043 3042 3041 3039 3038 3036 3034 3033 3031 3030 3027 3026 3024 3024 3022 3023 3022 3024 3024 3024 3025 3028 3030
3009 3009 3008 3008 3008 3009 3010 3011 3014 3016 3018 3020 3023 3026 3029 3031 3033 3035 3036 3037 3037 3036 3034 3032 3031 3029 3028 3026 3024 3022 3020 3019 3018 3018 3017 3017 3018 3019 3020 3021 3023 3024 3028
3004 3003 3003 3002 3002 3003 3004 3006 3007 3009 3012 3015 3018 3021 3023 3026 3027 3029 3031 3031 3031 3030 3028 3025 3024 3022 3021 3019 3017 3015 3013 3012 3011 3011 3012 3012 3013 3014 3016 3018 3020 3021 3023
3001 3000 2999 2998 2998 2998 2999 3001 3003 3005 3007 3010 3012 3015 3017 3020 3022 3023 3024 3024 3024 3023 3021 3020 3018 3016 3014 3012 3010 3009 3007 3006 3006 3005 3006 3007 3008 3009 3011 3014 3016 3017 3019
2998 2997 2996 2996 2996 2995 2997 2998 3000 3002 3004 3006 3007 3010 3012 3014 3016 3017 3018 3017 3016 3016 3015 3013 3012 3009 3008 3006 3005 3003 3001 3000 3000 3001 3002 3002 3003 3003 3007 3009 3011 3013 3015
2996 2996 2995 2995 2994 2994 2995 2997 2998 3000 3002 3003 3004 3006 3008 3009 3010 3010 3010 3010 3009 3009 3008 3006 3005 3004 3002 3000 2999 2997 2996 2996 2996 2997 2998 2999 2999 3001 3003 3005 3006 3008 3009